sat.trackr.live / text

‹ back to catalog

STARLINK-34355

NORAD 64306 · 2025-123R

PAYLOAD ACTIVE UNKNOWN

§ Identity

Operator
Country
US
Launch date
2025-06-08
Launch site
AFWTR
Launch vehicle
Mass (kg)
RCS (m²)

Purposes: comms

External: N2YO · Heavens-Above · Gunter

§ Orbital elements

Epoch: 2026-09-20T16:47:37.957632Z

Period
94.14 min
Inclination
70.0004°
Eccentricity
0.0002293
Mean motion
15.29583714 rev/d
Perigee alt
475.5 km
Apogee alt
478.6 km
Semi-major
6,855.2 km
B*
3.8268e-4
RAAN
60.5954°
Arg perigee
266.5464°
Mean anomaly
93.5449°
Rev number
7,088

§ Raw data

STARLINK-343551 64306U 25123R   26263.69974488  .00010890  00000+0  38268-3 0  99932 64306  70.0004  60.5954 0002293 266.5464  93.5449 15.29583714 70882

JSON: /api/v1/satellites/64306 · /tle

For live sub-satellite position, see the globe view (requires WebGL).

§ Visibility from observer

Set your observer location to see the next 7 days of passes ≥ 10°. The values pass through the URL so the page stays shareable.

No JS? Fill the form by hand. The geolocation button needs JavaScript.